CA3PBK-13 Weather Reports


time (UTC)temp
C
wind
direction
speed
KPH
gust
KPH
rain 1hr
cm
rain 24hr
cm
rain mn
cm
humidity
%
barometer
mb
20260507181307 16 135 1.6 4.8 0.00 0.94 0.00 1 933.9
20260507181108 16 45 0.0 4.8 0.00 0.94 0.00 1 934.0
20260507180907 16 45 0.0 4.8 0.00 0.94 0.00 1 934.0
20260507180709 17 45 0.0 4.8 0.00 0.94 0.00 1 934.0
20260507180509 17 45 1.6 4.8 0.00 0.94 0.00 1 934.1
20260507180307 17 315 0.0 3.2 0.00 0.94 0.00 1 934.2
20260507180107 17 45 0.0 3.2 0.00 0.94 0.00 1 934.2
20260507175907 16 225 0.0 4.8 0.00 0.94 0.00 1 934.2
20260507175707 15 225 0.0 4.8 0.00 0.94 0.00 1 934.3
20260507175508 15 135 0.0 4.8 0.00 0.94 0.00 1 934.4
20260507175307 15 135 1.6 4.8 0.00 0.94 0.00 1 934.5
20260507175107 15 135 0.0 4.8 0.00 0.94 0.00 1 934.6
20260507174908 15 135 1.6 4.8 0.00 0.94 0.00 1 934.5
20260507174708 15 45 0.0 4.8 0.00 0.94 0.00 1 934.4
20260507174509 15 45 0.0 4.8 0.00 0.94 0.00 1 934.4
20260507174307 15 135 0.0 4.8 0.00 0.94 0.00 1 934.6
20260507174107 15 135 0.0 6.4 0.00 0.94 0.00 1 934.6
20260507173907 15 135 1.6 6.4 0.00 0.94 0.00 1 934.5
20260507173707 15 225 3.2 6.4 0.00 0.94 0.00 1 934.6
20260507173508 15 135 3.2 6.4 0.00 0.94 0.00 1 934.6
20260507173307 15 135 3.2 6.4 0.00 0.94 0.00 1 934.6
20260507173107 15 135 1.6 4.8 0.00 0.94 0.00 1 934.6
20260507172907 16 225 0.0 4.8 0.00 0.94 0.00 1 934.7
20260507172707 15 45 0.0 4.8 0.00 0.94 0.00 1 934.7
20260507172509 15 225 0.0 4.8 0.00 0.94 0.00 1 934.7
20260507172308 15 225 1.6 4.8 0.00 0.94 0.00 1 934.7
20260507172107 15 135 0.0 4.8 0.00 0.94 0.00 1 934.8
20260507171907 15 135 1.6 4.8 0.00 0.94 0.00 1 934.9
20260507171707 15 225 1.6 4.8 0.00 0.94 0.00 1 934.8
20260507171509 15 135 1.6 4.8 0.00 0.94 0.00 1 934.8
20260507171307 15 225 1.6 4.8 0.00 0.94 0.00 1 934.9
20260507171107 15 135 3.2 4.8 0.00 0.94 0.00 1 934.9
20260507170907 15 315 0.0 4.8 0.00 0.94 0.00 1 934.9
20260507170707 15 225 0.0 4.8 0.00 0.94 0.00 1 934.8
20260507170509 15 135 0.0 4.8 0.00 0.94 0.00 1 934.9
20260507170308 15 225 1.6 4.8 0.00 0.94 0.00 1 934.8
20260507170108 15 135 1.6 4.8 0.00 0.94 0.00 1 934.8
20260507165907 15 45 0.0 4.8 0.00 0.94 0.00 1 934.9
20260507165707 15 45 0.0 3.2 0.00 0.94 0.00 1 935.0
20260507165508 15 315 0.0 3.2 0.00 0.94 0.00 1 935.1
20260507165307 15 45 0.0 3.2 0.00 0.94 0.00 1 935.1
20260507165107 15 135 0.0 3.2 0.00 0.94 0.00 1 935.2
20260507164907 15 135 0.0 4.8 0.00 0.94 0.00 1 935.2
20260507164707 16 135 0.0 4.8 0.00 0.94 0.00 1 935.2
20260507164509 16 90 0.0 4.8 0.00 0.94 0.00 1 935.5
20260507164307 16 225 0.0 4.8 0.00 0.94 0.00 1 935.4
20260507164107 16 225 0.0 4.8 0.00 0.94 0.00 1 935.3
20260507163908 16 0 0.0 4.8 0.00 0.94 0.00 1 935.3
20260507163708 15 225 0.0 3.2 0.00 0.94 0.00 1 935.3
20260507163509 15 0 0.0 3.2 0.00 0.94 0.00 1 935.3
20260507163307 15 225 0.0 3.2 0.00 0.94 0.00 1 935.3
20260507163107 15 0 0.0 3.2 0.00 0.94 0.00 1 935.3
20260507162907 15 225 0.0 1.6 0.00 0.94 0.00 1 935.3
20260507162707 15 0 0.0 1.6 0.00 0.94 0.00 1 935.3
20260507162508 14 0 0.0 1.6 0.00 0.94 0.00 1 935.4
20260507162307 14 45 0.0 3.2 0.00 0.94 0.00 1 935.5
20260507162107 14 225 0.0 3.2 0.00 0.94 0.00 1 935.5
20260507161907 14 45 0.0 3.2 0.00 0.94 0.00 1 935.5
20260507161708 14 225 0.0 3.2 0.00 0.94 0.00 1 935.4
20260507161509 15 135 0.0 3.2 0.00 0.94 0.00 1 935.5
20260507161307 15 225 0.0 3.2 0.00 0.94 0.00 1 935.5
20260507161107 15 180 0.0 3.2 0.00 0.94 0.00 1 935.5
20260507160907 15 135 0.0 3.2 0.00 0.94 0.00 1 935.5
20260507160707 15 45 0.0 3.2 0.00 0.94 0.00 1 935.4
20260507160509 15 315 0.0 3.2 0.00 0.94 0.00 1 935.4
20260507160307 15 135 0.0 3.2 0.00 0.94 0.00 1 935.4
20260507160107 15 90 0.0 3.2 0.00 0.94 0.00 1 935.3
20260507155907 15 135 0.0 3.2 0.00 0.94 0.00 1 935.3
20260507155707 15 45 0.0 3.2 0.00 0.94 0.00 1 935.3
20260507155509 15 90 0.0 4.8 0.00 0.94 0.00 1 935.4
20260507155308 16 45 0.0 4.8 0.00 0.94 0.00 1 935.4
20260507155108 15 135 0.0 4.8 0.00 0.94 0.00 1 935.4
20260507154907 15 0 0.0 4.8 0.00 0.94 0.00 1 935.4
20260507154707 15 0 1.6 4.8 0.00 0.94 0.00 1 935.4
20260507154509 15 315 0.0 3.2 0.00 0.94 0.00 1 935.4
20260507154307 15 45 0.0 3.2 0.00 0.94 0.00 1 935.5
20260507154107 15 0 0.0 3.2 0.00 0.94 0.00 1 935.4
20260507153907 15 0 0.0 3.2 0.00 0.94 0.00 1 935.4
20260507153707 15 225 0.0 3.2 0.00 0.94 0.00 1 935.3
20260507153509 15 315 0.0 3.2 0.00 0.94 0.00 1 935.3
20260507153307 15 315 0.0 3.2 0.00 0.94 0.00 1 935.3
20260507153108 15 315 0.0 3.2 0.00 0.94 0.00 1 935.3
20260507152908 15 225 0.0 3.2 0.00 0.94 0.00 1 935.3
20260507152707 15 45 0.0 4.8 0.00 0.94 0.00 1 935.4
20260507152509 15 315 0.0 4.8 0.00 0.94 0.00 1 935.4
20260507152307 15 90 0.0 4.8 0.00 0.94 0.00 1 935.4
20260507152107 15 225 0.0 4.8 0.00 0.94 0.00 1 935.4
20260507151907 14 0 1.6 4.8 0.00 0.94 0.00 1 935.5
20260507151707 14 315 0.0 4.8 0.00 0.94 0.00 1 935.5
20260507151509 14 315 0.0 4.8 0.00 0.94 0.00 1 935.6
20260507151307 14 315 0.0 3.2 0.00 0.94 0.00 1 935.7
20260507151107 13 315 0.0 3.2 0.00 0.94 0.00 1 935.8
20260507150908 13 45 0.0 3.2 0.00 0.94 0.00 1 935.9
20260507150708 13 0 0.0 3.2 0.00 0.94 0.00 1 935.8
20260507150509 13 45 0.0 3.2 0.00 0.94 0.00 1 935.8
20260507150307 13 0 0.0 3.2 0.00 0.94 0.00 1 935.8
20260507150107 13 315 0.0 3.2 0.00 0.94 0.00 1 935.8
20260507145907 12 135 0.0 1.6 0.00 0.94 0.00 1 935.9
20260507145707 12 90 0.0 1.6 0.00 0.94 0.00 1 936.1
20260507145509 12 225 0.0 1.6 0.00 0.94 0.00 1 936.2
20260507145307 12 135 0.0 3.2 0.00 0.94 0.00 1 936.2
20260507145107 12 225 0.0 3.2 0.00 0.94 0.00 1 936.3
20260507144907 12 180 0.0 3.2 0.00 0.94 0.00 1 936.3
20260507144708 12 315 0.0 3.2 0.00 0.94 0.00 1 936.3
20260507144307 12 180 0.0 3.2 0.00 0.94 0.00 1 936.3
20260507144107 12 135 0.0 3.2 0.00 0.94 0.00 1 936.4
20260507143907 12 45 0.0 3.2 0.00 0.94 0.00 1 936.5
20260507143707 11 225 0.0 3.2 0.00 0.94 0.00 1 936.5
20260507143509 12 180 0.0 3.2 0.00 0.94 0.00 1 936.6
20260507143307 11 90 0.0 3.2 0.00 0.94 0.00 1 936.7
20260507143107 11 180 0.0 3.2 0.00 0.94 0.00 1 936.7
20260507142907 11 180 0.0 3.2 0.00 0.94 0.00 1 936.5
20260507142707 11 135 0.0 3.2 0.00 0.94 0.00 1 936.7
20260507142509 11 180 0.0 3.2 0.00 0.94 0.00 1 936.7
20260507142307 11 180 0.0 3.2 0.00 0.94 0.00 1 936.6
20260507142107 11 225 0.0 3.2 0.00 0.94 0.00 1 936.7
20260507141907 11 180 0.0 3.2 0.00 0.94 0.00 1 936.7
20260507141707 11 135 0.0 4.8 0.00 0.94 0.00 1 936.7
20260507141509 11 180 0.0 4.8 0.00 0.94 0.00 1 936.7
20260507141307 11 135 0.0 4.8 0.00 0.94 0.00 1 936.7
20260507141107 11 180 0.0 4.8 0.00 0.94 0.00 1 936.7
20260507140907 11 225 0.0 4.8 0.00 0.94 0.00 1 936.6
20260507140707 11 135 0.0 4.8 0.00 0.94 0.00 1 936.7
20260507140509 11 135 0.0 4.8 0.00 0.94 0.00 1 936.7
20260507140308 11 135 0.0 4.8 0.00 0.94 0.00 1 936.6
20260507140107 11 135 1.6 4.8 0.00 0.94 0.00 1 936.6
20260507135907 11 225 0.0 4.8 0.00 0.94 0.00 1 936.7
20260507135707 11 180 1.6 4.8 0.00 0.94 0.00 1 936.6
20260507135509 11 90 1.6 4.8 0.00 0.94 0.00 1 936.6
20260507135307 11 135 0.0 4.8 0.00 0.94 0.00 1 936.7
20260507135107 11 180 0.0 4.8 0.00 0.94 0.00 1 936.7
20260507134907 11 180 0.0 3.2 0.00 0.94 0.00 1 936.7
20260507134707 11 180 0.0 4.8 0.00 0.94 0.00 1 936.7
20260507134509 11 180 0.0 4.8 0.00 0.94 0.00 1 936.7
20260507134308 11 180 0.0 4.8 0.00 0.94 0.00 1 936.7
20260507134108 11 135 0.0 4.8 0.00 0.94 0.00 1 936.6
20260507133907 11 225 1.6 4.8 0.00 0.94 0.00 1 936.6
20260507133707 11 225 1.6 4.8 0.00 0.94 0.00 1 936.6
20260507133509 11 135 0.0 4.8 0.00 0.94 0.00 1 936.6
20260507133307 11 225 0.0 3.2 0.00 0.94 0.00 1 936.7
20260507133107 11 180 0.0 3.2 0.00 0.94 0.00 1 936.7
20260507132907 10 180 0.0 4.8 0.00 0.94 0.00 1 936.7
20260507132707 10 180 0.0 4.8 0.00 0.94 0.00 1 936.7
20260507132509 11 225 0.0 4.8 0.00 0.94 0.00 1 936.7
20260507132308 11 180 0.0 4.8 0.00 0.94 0.00 1 936.7
20260507132108 10 180 1.6 4.8 0.00 0.94 0.00 1 936.8
20260507131908 10 180 0.0 4.8 0.00 0.94 0.00 1 936.7
20260507131707 10 180 1.6 4.8 0.00 0.94 0.00 1 936.6
20260507131509 10 225 1.6 4.8 0.00 0.94 0.00 1 936.6
20260507131307 11 225 0.0 3.2 0.00 0.94 0.00 1 936.7
20260507131107 10 180 0.0 3.2 0.00 0.94 0.00 1 936.8
20260507130907 10 180 0.0 3.2 0.00 0.94 0.00 1 936.6
20260507130707 11 225 0.0 3.2 0.00 0.94 0.00 1 936.5
20260507130509 11 180 0.0 3.2 0.00 0.94 0.00 1 936.6
20260507130307 10 225 0.0 3.2 0.00 0.94 0.00 1 936.8
20260507130108 10 135 0.0 3.2 0.00 0.94 0.00 1 936.8
20260507125908 10 180 0.0 3.2 0.00 0.94 0.00 1 936.8
20260507125707 10 135 0.0 3.2 0.00 0.94 0.00 1 936.6
20260507125509 10 225 0.0 3.2 0.00 0.94 0.00 1 936.6
20260507125307 10 90 0.0 3.2 0.00 0.94 0.00 1 936.6
20260507125107 10 135 0.0 3.2 0.00 0.94 0.00 1 936.6
20260507124907 10 45 0.0 3.2 0.00 0.94 0.00 1 936.6
20260507124707 10 45 0.0 3.2 0.00 0.94 0.00 1 936.5
20260507124511 10 180 0.0 3.2 0.00 0.94 0.00 1 936.5
20260507124307 10 135 0.0 3.2 0.00 0.94 0.00 1 936.5
20260507124107 10 45 0.0 3.2 0.00 0.94 0.00 1 936.5
20260507123908 10 135 0.0 3.2 0.00 0.94 0.00 1 936.5
20260507123708 10 315 0.0 3.2 0.00 0.94 0.00 1 936.4
20260507123509 10 45 0.0 4.8 0.00 0.94 0.00 1 936.5
20260507123307 10 45 0.0 4.8 0.00 0.94 0.00 1 936.5
20260507123107 10 180 0.0 4.8 0.00 0.94 0.00 1 936.4
20260507122708 10 45 0.0 4.8 0.00 0.94 0.00 1 936.3
20260507122509 11 135 0.0 3.2 0.00 0.94 0.00 1 936.3
20260507122308 11 225 0.0 3.2 0.00 0.94 0.00 1 936.3
20260507122107 11 180 0.0 3.2 0.00 0.94 0.00 1 936.3
20260507121907 11 225 0.0 3.2 0.00 0.94 0.00 1 936.3
20260507121708 11 45 0.0 3.2 0.00 0.94 0.00 1 936.2
20260507121509 11 0 0.0 3.2 0.00 0.94 0.00 1 936.1
20260507121307 11 45 0.0 1.6 0.00 0.94 0.00 1 936.0
20260507121107 11 45 0.0 1.6 0.00 0.94 0.00 1 936.1
20260507120907 11 225 0.0 1.6 0.00 0.94 0.00 1 936.0
20260507120707 11 315 0.0 1.6 0.00 0.94 0.00 1 936.0
20260507120509 11 45 0.0 1.6 0.00 0.94 0.00 1 935.9
20260507120307 11 225 0.0 0.0 0.00 0.94 0.00 1 935.9
20260507120107 11 225 0.0 0.0 0.00 0.94 0.00 1 935.8
20260507115907 11 315 0.0 0.0 0.00 0.94 0.00 1 935.8
20260507115708 11 225 0.0 1.6 0.00 0.94 0.00 1 935.8
20260507115509 11 45 0.0 1.6 0.00 0.94 0.00 1 935.8
20260507115307 11 315 0.0 1.6 0.00 0.94 0.00 1 935.8
20260507115107 11 45 0.0 1.6 0.00 0.94 0.00 1 935.8
20260507114907 10 135 0.0 1.6 0.00 0.94 0.00 1 935.9
20260507114707 11 135 0.0 0.0 0.00 0.94 0.00 1 935.8
20260507114509 11 0 0.0 0.0 0.00 0.94 0.00 1 935.7
20260507114307 11 135 0.0 0.0 0.00 0.94 0.00 1 935.7
20260507114107 11 225 0.0 0.0 0.00 0.94 0.00 1 935.7
20260507113907 11 225 0.0 1.6 0.00 0.94 0.00 1 935.6
20260507113707 11 45 0.0 1.6 0.00 0.94 0.00 1 935.8
20260507113509 11 225 0.0 1.6 0.00 0.94 0.00 1 935.8
20260507113308 10 225 0.0 1.6 0.00 0.94 0.00 1 935.8
20260507113107 11 135 0.0 1.6 0.00 0.94 0.00 1 935.7
20260507112908 11 45 0.0 1.6 0.00 0.94 0.00 1 935.8
20260507112707 11 0 0.0 1.6 0.00 0.94 0.00 1 935.8
20260507112509 10 45 0.0 1.6 0.00 0.94 0.00 1 935.8
20260507112307 10 135 0.0 1.6 0.00 0.94 0.00 1 935.7
20260507112107 11 0 0.0 1.6 0.00 0.94 0.00 1 935.7
20260507111907 10 45 0.0 1.6 0.00 0.94 0.00 1 935.8
20260507111707 10 180 0.0 1.6 0.00 0.94 0.00 1 935.8
20260507111509 11 135 0.0 0.0 0.00 0.94 0.00 1 935.7
20260507111308 11 315 0.0 0.0 0.00 0.94 0.00 1 935.7
20260507111107 11 0 0.0 0.0 0.00 0.94 0.00 1 935.7
20260507110907 11 0 0.0 0.0 0.00 0.94 0.00 1 935.7
20260507110707 11 225 0.0 0.0 0.00 0.94 0.00 1 935.7
20260507110509 11 0 0.0 1.6 0.00 0.94 0.00 1 935.7
20260507110307 11 225 0.0 1.6 0.00 0.94 0.00 1 935.6
20260507110107 11 225 0.0 1.6 0.00 0.94 0.00 1 935.6
20260507105907 11 225 0.0 1.6 0.00 0.94 0.00 1 935.6
20260507105708 11 225 0.0 1.6 0.00 0.94 0.00 1 935.6
20260507105509 11 225 0.0 1.6 0.00 0.94 0.00 1 935.5
20260507105308 11 45 0.0 1.6 0.00 0.94 0.00 1 935.5
20260507105109 11 45 0.0 1.6 0.00 0.94 0.00 1 935.6
20260507104907 11 45 0.0 1.6 0.00 0.94 0.00 1 935.4
20260507104707 10 135 0.0 1.6 0.00 0.94 0.00 1 935.4
20260507104510 10 135 0.0 1.6 0.00 0.94 0.00 1 935.4
20260507104307 10 135 0.0 1.6 0.00 0.94 0.00 1 935.4
20260507104107 10 135 0.0 1.6 0.00 0.94 0.00 1 935.4
20260507103907 10 180 0.0 1.6 0.00 0.94 0.00 1 935.5
20260507103707 10 135 0.0 1.6 0.00 0.94 0.00 1 935.4
20260507103509 10 225 0.0 1.6 0.00 0.94 0.00 1 935.4
20260507103307 10 180 0.0 1.6 0.00 0.94 0.00 1 935.4
20260507103108 10 135 0.0 1.6 0.00 0.94 0.00 1 935.4
20260507102908 10 225 0.0 1.6 0.00 0.94 0.00 1 935.2
20260507102707 11 135 0.0 0.0 0.00 0.94 0.00 1 935.3
20260507102510 11 135 0.0 0.0 0.00 0.94 0.00 1 935.4
20260507102308 11 225 0.0 0.0 0.00 0.94 0.00 1 935.3
20260507102108 11 225 0.0 0.0 0.00 0.94 0.00 1 935.3
20260507101907 11 225 0.0 0.0 0.00 0.94 0.00 1 935.4
20260507101707 11 225 0.0 0.0 0.00 0.94 0.00 1 935.4
20260507101509 11 180 0.0 0.0 0.00 0.94 0.00 1 935.4
20260507101307 11 225 0.0 0.0 0.00 0.94 0.00 1 935.4
20260507101108 11 225 0.0 0.0 0.00 0.94 0.00 1 935.4
20260507100908 11 225 0.0 0.0 0.00 0.94 0.00 1 935.4
20260507100707 11 225 0.0 0.0 0.00 0.94 0.00 1 935.3
20260507100509 11 0 0.0 0.0 0.00 0.94 0.00 1 935.3
20260507100308 11 45 0.0 0.0 0.00 0.94 0.00 1 935.3
20260507100107 10 90 0.0 0.0 0.00 0.94 0.00 1 935.3
20260507095907 10 90 0.0 1.6 0.00 0.94 0.00 1 935.3
20260507095707 10 90 0.0 1.6 0.00 0.94 0.00 1 935.3
20260507095509 10 135 0.0 3.2 0.00 0.94 0.00 1 935.3
20260507095307 10 135 0.0 3.2 0.00 0.94 0.00 1 935.3
20260507095107 10 135 0.0 3.2 0.00 0.94 0.00 1 935.3
20260507094908 10 180 0.0 3.2 0.00 0.94 0.00 1 935.3
20260507094708 10 225 0.0 3.2 0.00 0.94 0.00 1 935.3
20260507094509 10 180 0.0 3.2 0.00 0.94 0.00 1 935.3
20260507094307 10 180 0.0 3.2 0.00 0.94 0.00 1 935.3
20260507094108 10 225 0.0 3.2 0.00 0.94 0.00 1 935.3
20260507093908 10 180 0.0 3.2 0.00 0.94 0.00 1 935.3
20260507093708 10 225 0.0 1.6 0.00 0.94 0.00 1 935.3
20260507093509 10 180 0.0 1.6 0.00 0.94 0.00 1 935.2
20260507093307 10 225 0.0 1.6 0.00 0.94 0.00 1 935.2
20260507093107 10 180 0.0 3.2 0.00 0.94 0.00 1 935.1
20260507092908 10 180 0.0 3.2 0.00 0.94 0.00 1 935.1
20260507092708 10 180 0.0 3.2 0.00 0.94 0.00 1 935.1
20260507092509 10 225 0.0 3.2 0.00 0.94 0.00 1 935.0
20260507092307 10 180 0.0 3.2 0.00 0.94 0.00 1 934.9
20260507092107 10 180 0.0 1.6 0.00 0.94 0.00 1 934.9
20260507091908 10 180 0.0 1.6 0.00 0.94 0.00 1 934.8
20260507091707 10 180 0.0 1.6 0.00 0.94 0.00 1 934.8
20260507091509 10 180 0.0 1.6 0.00 0.94 0.00 1 934.9
20260507091308 10 180 0.0 1.6 0.00 0.94 0.00 1 934.8
20260507091107 10 135 0.0 1.6 0.00 0.94 0.00 1 934.8
20260507090907 10 135 0.0 0.0 0.00 0.94 0.00 1 934.7
20260507090708 10 135 0.0 1.6 0.00 0.94 0.00 1 934.7
20260507090509 10 135 0.0 1.6 0.00 0.94 0.00 1 934.6
20260507090307 10 45 0.0 1.6 0.00 0.94 0.00 1 934.6
20260507090108 10 45 0.0 1.6 0.00 0.94 0.00 1 934.6
20260507085908 10 180 0.0 1.6 0.00 0.94 0.00 1 934.6
20260507085708 10 180 0.0 1.6 0.00 0.94 0.00 1 934.6
20260507085509 10 135 0.0 1.6 0.00 0.94 0.00 1 934.5
20260507085307 10 180 0.0 1.6 0.00 0.94 0.00 1 934.6
20260507085107 10 180 0.0 3.2 0.00 0.94 0.00 1 934.6
20260507084907 10 225 0.0 3.2 0.00 0.94 0.00 1 934.7
20260507084708 10 180 0.0 3.2 0.00 0.94 0.00 1 934.6
20260507084509 10 135 0.0 3.2 0.00 0.94 0.00 1 934.6
20260507084307 10 135 0.0 3.2 0.00 0.94 0.00 1 934.6
20260507084107 10 135 0.0 3.2 0.00 0.94 0.00 1 934.6
20260507083907 10 135 0.0 3.2 0.00 0.94 0.00 1 934.7
20260507083707 10 135 0.0 1.6 0.00 0.94 0.00 1 934.7
20260507083509 10 135 0.0 1.6 0.00 0.94 0.00 1 934.7
20260507083308 10 135 0.0 1.6 0.00 0.94 0.00 1 934.7
20260507083108 10 135 0.0 1.6 0.00 0.94 0.00 1 934.7
20260507082907 10 225 0.0 1.6 0.00 0.94 0.00 1 934.6
20260507082707 10 45 0.0 1.6 0.00 0.94 0.00 1 934.7
20260507082509 10 135 0.0 1.6 0.00 0.94 0.00 1 934.6
20260507082308 11 90 0.0 1.6 0.00 0.94 0.00 1 934.6
20260507082107 11 225 0.0 0.0 0.00 0.94 0.00 1 934.6
20260507081907 11 225 0.0 0.0 0.00 0.94 0.00 1 934.6
20260507081707 11 45 0.0 0.0 0.00 0.94 0.00 1 934.7
20260507081509 10 135 0.0 0.0 0.00 0.94 0.00 1 934.7
20260507081307 11 45 0.0 0.0 0.00 0.94 0.00 1 934.6
20260507081108 11 315 0.0 1.6 0.00 0.94 0.00 1 934.7
20260507080908 10 0 0.0 1.6 0.00 0.94 0.00 1 934.7
20260507080708 10 0 0.0 1.6 0.00 0.94 0.00 1 934.7
20260507080509 10 45 0.0 1.6 0.00 0.94 0.00 1 934.7
20260507080308 10 180 0.0 1.6 0.00 0.94 0.00 1 934.7
20260507080107 10 180 0.0 1.6 0.00 0.94 0.00 1 934.7
20260507075907 10 180 0.0 3.2 0.00 0.94 0.00 1 934.7
20260507075707 10 90 0.0 4.8 0.00 0.94 0.00 1 934.7
20260507075509 10 45 0.0 4.8 0.00 0.94 0.00 1 934.8
20260507075308 10 135 0.0 4.8 0.00 0.94 0.00 1 934.8
20260507075108 10 135 0.0 4.8 0.00 0.94 0.00 1 934.9
20260507074908 10 135 1.6 4.8 0.00 0.94 0.00 1 934.9
20260507074708 10 180 0.0 4.8 0.00 0.94 0.00 1 934.9
20260507074509 10 225 1.6 4.8 0.00 0.94 0.00 1 934.8
20260507074308 10 225 0.0 4.8 0.00 0.94 0.00 1 934.9
20260507074108 10 225 0.0 4.8 0.00 0.94 0.00 1 934.8
20260507073907 10 180 0.0 4.8 0.00 0.94 0.00 1 934.8
20260507073707 10 180 1.6 4.8 0.00 0.94 0.00 1 934.8
20260507073509 10 180 1.6 4.8 0.00 0.94 0.00 1 934.8
20260507073307 10 225 1.6 4.8 0.00 0.94 0.00 1 934.8
20260507073108 10 180 1.6 4.8 0.00 0.94 0.00 1 934.8
20260507072908 10 135 1.6 4.8 0.00 0.94 0.00 1 934.8
20260507072708 10 135 0.0 4.8 0.00 0.94 0.00 1 934.8
20260507072509 10 135 1.6 4.8 0.00 0.94 0.00 1 934.8
20260507072308 10 135 0.0 4.8 0.00 0.94 0.00 1 934.8
20260507072108 10 225 0.0 4.8 0.00 0.94 0.00 1 934.8
20260507071908 10 225 0.0 4.8 0.00 0.94 0.00 1 934.6
20260507071708 10 135 1.6 4.8 0.00 0.94 0.00 1 934.6
20260507071509 10 135 1.6 4.8 0.00 0.94 0.00 1 934.6
20260507071308 10 225 1.6 4.8 0.00 0.94 0.00 1 934.5
20260507071108 10 135 1.6 4.8 0.00 0.94 0.00 1 934.6
20260507070908 10 90 0.0 4.8 0.00 0.94 0.00 1 934.5
20260507070707 10 135 1.6 4.8 0.00 0.94 0.00 1 934.5
20260507070509 10 135 1.6 4.8 0.00 0.94 0.00 1 934.6
20260507070307 10 45 0.0 3.2 0.00 0.94 0.00 1 934.6
20260507070108 10 45 0.0 3.2 0.00 0.94 0.00 1 934.6
20260507065908 10 135 0.0 3.2 0.00 0.94 0.00 1 934.5
20260507065708 10 315 0.0 3.2 0.00 0.94 0.00 1 934.4
20260507065510 10 315 0.0 4.8 0.00 0.94 0.00 1 934.5
20260507065308 10 135 0.0 4.8 0.00 0.94 0.00 1 934.4
20260507065108 10 225 0.0 4.8 0.00 0.94 0.00 1 934.4
20260507064908 10 135 0.0 4.8 0.00 0.94 0.00 1 934.4
20260507064707 10 135 1.6 4.8 0.00 0.94 0.00 1 934.3
20260507064509 10 135 1.6 4.8 0.00 0.94 0.00 1 934.3
20260507064307 10 225 0.0 3.2 0.00 0.94 0.00 1 934.4
20260507064108 10 135 0.0 4.8 0.00 0.94 0.00 1 934.4
20260507063908 10 45 0.0 4.8 0.00 0.94 0.00 1 934.3
20260507063708 10 135 0.0 4.8 0.00 0.94 0.00 1 934.2
20260507063509 10 225 0.0 4.8 0.00 0.94 0.00 1 934.3
20260507063308 10 225 1.6 4.8 0.00 0.94 0.00 1 934.2
20260507063108 10 225 0.0 4.8 0.00 0.94 0.00 1 934.3
20260507062907 10 225 0.0 4.8 0.00 0.94 0.00 1 934.2
20260507062707 10 225 1.6 3.2 0.00 0.94 0.00 1 934.3
20260507062509 10 180 0.0 4.8 0.00 0.94 0.00 1 934.3
20260507062307 10 315 0.0 4.8 0.00 0.94 0.00 1 934.2
20260507062108 10 225 0.0 4.8 0.00 0.94 0.00 1 934.3
20260507061908 10 225 0.0 4.8 0.00 0.94 0.00 1 934.2
20260507061708 10 315 1.6 4.8 0.00 0.94 0.00 1 934.2
20260507061509 10 225 1.6 4.8 0.00 0.94 0.00 1 934.2
20260507061308 10 135 1.6 4.8 0.00 0.94 0.00 1 934.2
20260507061107 10 135 0.0 4.8 0.00 0.94 0.00 1 934.2
20260507060907 10 225 1.6 4.8 0.00 0.94 0.00 1 934.2
20260507060708 11 225 0.0 4.8 0.00 0.94 0.00 1 934.2
20260507060509 11 135 0.0 4.8 0.00 0.94 0.00 1 934.2
20260507060308 10 180 0.0 4.8 0.00 0.94 0.00 1 934.1
20260507060108 10 225 0.0 4.8 0.00 0.94 0.00 1 934.1
20260507055908 10 135 0.0 4.8 0.00 0.94 0.00 1 934.2
20260507055708 10 180 1.6 4.8 0.00 0.94 0.00 1 934.2
20260507055509 10 225 1.6 4.8 0.00 0.94 0.00 1 934.2
20260507055307 11 180 0.0 4.8 0.00 0.94 0.00 1 934.1
20260507055108 11 180 0.0 4.8 0.00 0.94 0.00 1 934.1
20260507054908 10 135 0.0 4.8 0.00 0.94 0.00 1 934.1
20260507054708 11 180 0.0 4.8 0.00 0.94 0.00 1 934.1
20260507054509 10 180 1.6 4.8 0.00 0.94 0.00 1 934.1
20260507054308 11 135 1.6 4.8 0.00 0.94 0.00 1 934.1
20260507054108 11 225 0.0 4.8 0.00 0.94 0.00 1 934.0
20260507053908 11 135 0.0 4.8 0.00 0.94 0.00 1 934.0
20260507053708 11 180 0.0 6.4 0.00 0.94 0.00 1 934.0
20260507053509 11 45 0.0 6.4 0.00 0.94 0.00 1 934.0
20260507053308 10 135 0.0 6.4 0.00 0.94 0.00 1 933.9
20260507053108 10 135 1.6 6.4 0.00 0.94 0.00 1 934.0
20260507052908 10 180 1.6 6.4 0.00 0.94 0.00 1 933.9
20260507052708 10 135 1.6 6.4 0.00 0.94 0.00 1 934.0
20260507052509 10 135 1.6 6.4 0.00 0.94 0.00 1 934.0
20260507052308 10 135 1.6 6.4 0.00 0.94 0.00 1 933.9
20260507052108 10 45 1.6 6.4 0.00 0.94 0.00 1 933.9
20260507051908 10 135 3.2 6.4 0.00 0.94 0.00 1 934.0
20260507051708 11 45 1.6 6.4 0.00 0.94 0.00 1 934.0
20260507051509 11 135 1.6 6.4 0.00 0.94 0.00 1 933.9
20260507051308 11 45 3.2 6.4 0.00 0.94 0.00 1 933.9
20260507051108 11 45 1.6 4.8 0.00 0.94 0.00 1 933.9
20260507050907 11 225 0.0 4.8 0.00 0.94 0.00 1 933.9
20260507050707 11 45 0.0 4.8 0.00 0.94 0.00 1 933.8
20260507050509 11 315 0.0 4.8 0.00 0.94 0.00 1 933.9
20260507050308 10 135 1.6 4.8 0.00 0.94 0.00 1 933.9
20260507050108 11 135 1.6 4.8 0.00 0.94 0.00 1 933.8
20260507045908 11 315 0.0 4.8 0.00 0.94 0.00 1 933.9
20260507045708 10 225 1.6 4.8 0.00 0.94 0.00 1 933.9
20260507045509 10 225 0.0 4.8 0.00 0.94 0.00 1 933.9
20260507045308 10 180 1.6 4.8 0.00 0.94 0.00 1 934.0
20260507045108 10 225 1.6 6.4 0.00 0.94 0.00 1 933.9
20260507044908 10 225 1.6 6.4 0.00 0.94 0.00 1 933.9
20260507044708 10 180 1.6 6.4 0.00 0.94 0.00 1 933.9
20260507044509 10 225 1.6 6.4 0.00 0.94 0.00 1 933.9
20260507044308 10 180 3.2 6.4 0.00 0.94 0.00 1 933.9
20260507044108 10 180 1.6 6.4 0.00 0.94 0.00 1 933.9
20260507043509 11 180 0.0 4.8 0.00 0.94 0.00 1 933.9
20260507043308 11 225 0.0 4.8 0.00 0.94 0.00 1 934.1
20260507043108 11 315 1.6 4.8 0.00 0.94 0.00 1 934.1
20260507042908 11 225 0.0 4.8 0.00 0.94 0.00 1 934.1
20260507042708 11 225 0.0 4.8 0.00 0.94 0.00 1 934.0
20260507042509 11 270 0.0 4.8 0.00 0.94 0.00 1 933.9
20260507042308 11 225 1.6 4.8 0.00 0.94 0.00 1 933.9
20260507042108 11 270 1.6 4.8 0.00 0.94 0.00 1 933.9
20260507041908 11 180 1.6 4.8 0.00 0.94 0.00 1 933.9
20260507041509 11 180 0.0 4.8 0.00 0.94 0.00 1 933.9
20260507041308 11 180 0.0 4.8 0.00 0.94 0.00 1 933.9
20260507041108 11 225 0.0 4.8 0.00 0.94 0.00 1 934.0
20260507040909 11 225 0.0 3.2 0.00 0.94 0.00 1 933.9
20260507040708 11 180 0.0 1.6 0.00 0.94 0.00 1 933.9
20260507040510 11 225 0.0 1.6 0.00 0.94 0.00 1 934.0
20260507040308 12 135 0.0 1.6 0.00 0.94 0.00 1 934.0
20260507040108 12 45 0.0 1.6 0.00 0.94 0.00 1 934.0
20260507035908 11 45 0.0 1.6 0.00 0.94 0.00 1 934.1
20260507035707 11 135 0.0 4.8 0.00 0.94 0.00 1 934.0
20260507035509 11 135 0.0 4.8 0.00 0.94 0.00 1 934.0
20260507035308 11 90 0.0 4.8 0.00 0.94 0.00 1 934.1
20260507035108 11 45 0.0 8.0 0.00 0.94 0.00 1 934.2
20260507034908 11 180 0.0 8.0 0.00 0.94 0.00 1 934.2
20260507034709 11 180 1.6 8.0 0.00 0.94 0.00 1 934.3
20260507034509 10 180 1.6 8.0 0.00 0.94 0.00 1 934.3
20260507034308 10 180 3.2 8.0 0.00 0.94 0.00 1 934.3
20260507034108 10 180 1.6 8.0 0.00 0.94 0.00 1 934.3
20260507033908 10 180 3.2 8.0 0.00 0.94 0.00 1 934.3
20260507033708 11 315 1.6 6.4 0.00 0.94 0.00 1 934.3
20260507033509 11 225 1.6 6.4 0.00 0.94 0.00 1 934.3
20260507033308 11 180 0.0 6.4 0.00 0.94 0.00 1 934.2
20260507033108 11 315 0.0 6.4 0.00 0.94 0.00 1 934.2
20260507032908 10 225 3.2 6.4 0.00 0.94 0.00 1 934.3
20260507032708 11 225 1.6 8.0 0.00 0.94 0.00 1 934.3
20260507032509 11 180 1.6 8.0 0.00 0.94 0.00 1 934.3
20260507032308 10 225 1.6 8.0 0.00 0.94 0.00 1 934.2
20260507032108 10 180 3.2 8.0 0.00 0.94 0.00 1 934.2
20260507031908 11 315 1.6 8.0 0.03 0.94 0.00 1 934.1
20260507031708 10 180 3.2 8.0 0.03 0.94 0.00 1 934.1
20260507031509 11 225 3.2 8.0 0.03 0.94 0.00 1 934.1
20260507031308 11 225 3.2 8.0 0.03 0.94 0.00 1 934.0
20260507030908 11 180 0.0 4.8 0.03 0.94 0.00 1 934.0
20260507030708 11 135 0.0 6.4 0.03 0.94 0.00 1 933.9
20260507030509 11 90 0.0 6.4 0.03 0.94 0.00 1 933.9
20260507030308 11 135 1.6 8.0 0.03 0.94 0.00 1 933.8
20260507030108 11 135 3.2 8.0 0.03 0.94 0.00 1 933.8
20260507025908 11 180 1.6 8.0 0.03 0.94 0.00 1 933.9
20260507025708 11 180 1.6 8.0 0.03 0.94 0.00 1 933.9
20260507025509 11 135 1.6 8.0 0.03 0.94 0.00 1 933.9
20260507025308 11 180 1.6 6.4 0.03 0.94 0.00 1 933.9
20260507025108 11 225 1.6 6.4 0.03 0.94 0.00 1 933.9
20260507024908 11 225 1.6 6.4 0.03 0.94 0.00 1 933.8
20260507024708 11 45 3.2 8.0 0.03 0.94 0.00 1 933.8
20260507024509 11 180 0.0 8.0 0.03 0.94 0.00 1 933.8
20260507024308 10 225 1.6 8.0 0.03 0.94 0.00 1 933.8
20260507024108 10 180 3.2 8.0 0.03 0.94 0.00 1 933.7
20260507023908 10 135 3.2 9.7 0.03 0.94 0.00 1 933.7
20260507023708 10 180 3.2 9.7 0.03 0.94 0.00 1 933.7
20260507023308 10 225 4.8 11.3 0.05 0.94 0.00 1 933.7
20260507023108 10 270 4.8 11.3 0.05 0.94 0.00 1 933.7
20260507022908 10 135 4.8 11.3 0.05 0.94 0.00 1 933.7
20260507022708 10 180 4.8 11.3 0.08 0.94 0.00 1 933.6
20260507022509 10 225 4.8 11.3 0.08 0.94 0.00 1 933.6
20260507022308 10 225 4.8 9.7 0.08 0.94 0.00 1 933.7
20260507022109 10 180 4.8 9.7 0.08 0.94 0.00 1 933.6
20260507021908 11 225 4.8 9.7 0.05 0.91 0.00 1 933.5
20260507021708 10 225 4.8 9.7 0.05 0.91 0.00 1 933.5
20260507021509 11 180 4.8 9.7 0.05 0.91 0.00 1 933.5
20260507021308 11 225 3.2 9.7 0.05 0.91 0.00 1 933.6
20260507021108 11 180 3.2 9.7 0.05 0.91 0.00 1 933.5
20260507020908 11 225 3.2 8.0 0.05 0.91 0.00 1 933.5
20260507020708 11 180 1.6 8.0 0.05 0.91 0.00 1 933.4
20260507020509 11 180 3.2 8.0 0.05 0.91 0.00 1 933.4
20260507020308 11 135 3.2 8.0 0.05 0.91 0.00 1 933.4
20260507020108 11 225 3.2 6.4 0.05 0.91 0.00 1 933.4
20260507015909 11 225 1.6 6.4 0.05 0.91 0.00 1 933.4
20260507015708 11 180 1.6 6.4 0.08 0.91 0.00 1 933.4
20260507015510 11 90 1.6 6.4 0.08 0.91 0.00 1 933.5
20260507015308 11 135 3.2 6.4 0.08 0.91 0.00 1 933.5
20260507015108 11 180 3.2 6.4 0.08 0.91 0.00 1 933.5
20260507014908 11 270 1.6 6.4 0.08 0.91 0.00 1 933.5
20260507014708 11 180 1.6 8.0 0.08 0.91 0.00 1 933.5
20260507014509 11 180 1.6 11.3 0.08 0.91 0.00 1 933.5
20260507014308 11 180 1.6 11.3 0.08 0.91 0.00 1 933.5
20260507014108 11 135 3.2 11.3 0.08 0.91 0.00 1 933.5
20260507013908 11 225 3.2 11.3 0.08 0.91 0.00 1 933.6
20260507013709 11 135 4.8 11.3 0.08 0.91 0.00 1 933.5
20260507013509 11 180 3.2 9.7 0.08 0.91 0.00 1 933.6
20260507013308 11 135 3.2 9.7 0.05 0.89 0.00 1 933.6
20260507013108 11 90 3.2 9.7 0.05 0.89 0.00 1 933.5
20260507012908 11 180 3.2 9.7 0.05 0.89 0.00 1 933.5
20260507012708 11 180 3.2 9.7 0.03 0.84 0.00 1 933.5
20260507012509 11 135 3.2 9.7 0.03 0.84 0.00 1 933.5
20260507012308 11 225 4.8 9.7 0.03 0.84 0.00 1 933.5
20260507012108 11 135 4.8 9.7 0.03 0.84 0.00 1 933.4
20260507011908 11 225 4.8 9.7 0.05 0.84 0.00 1 933.5
20260507011708 11 180 4.8 9.7 0.05 0.84 0.00 1 933.5
20260507011509 11 225 3.2 9.7 0.08 0.84 0.00 1 933.4
20260507011308 11 180 4.8 9.7 0.13 0.84 0.00 1 933.3
20260507011108 11 225 4.8 9.7 0.13 0.84 0.00 1 933.4
20260507010908 11 180 4.8 12.9 0.13 0.84 0.00 1 933.3
20260507010708 11 180 3.2 12.9 0.13 0.84 0.00 1 933.3
20260507010509 11 225 3.2 12.9 0.13 0.84 0.00 1 933.2
20260507010308 11 180 3.2 12.9 0.15 0.84 0.00 1 933.3
20260507010108 11 180 4.8 12.9 0.15 0.84 0.00 1 933.3
20260507005908 11 180 4.8 12.9 0.15 0.84 0.00 1 933.2
20260507005708 11 180 4.8 9.7 0.15 0.81 0.00 1 933.2
20260507005509 11 180 3.2 9.7 0.23 0.81 0.00 1 933.2
20260507005308 11 135 3.2 9.7 0.36 0.81 0.00 1 933.2
20260507005108 11 135 3.2 9.7 0.38 0.81 0.00 1 933.1
20260507004908 11 135 3.2 8.0 0.38 0.81 0.00 1 933.1
20260507004708 11 135 3.2 8.0 0.38 0.81 0.00 1 933.1
20260507004509 11 180 1.6 8.0 0.38 0.81 0.00 1 933.1
20260507004308 11 135 3.2 9.7 0.38 0.81 0.00 1 933.1
20260507004108 11 180 3.2 9.7 0.41 0.81 0.00 1 933.0
20260507003908 11 180 3.2 9.7 0.41 0.81 0.00 1 933.0
20260507003708 11 180 4.8 9.7 0.41 0.81 0.00 1 933.0
20260507003309 11 180 3.2 8.0 0.41 0.81 0.00 1 933.0
20260507003108 11 225 3.2 8.0 0.41 0.81 0.00 1 933.0
20260507002908 11 225 3.2 8.0 0.41 0.81 0.00 1 933.0
20260507002708 11 225 3.2 8.0 0.41 0.81 0.00 1 932.8
20260507002308 11 180 3.2 8.0 0.41 0.81 0.00 1 932.8
20260507002108 11 225 3.2 8.0 0.41 0.81 0.00 1 932.8
20260507001908 11 135 3.2 8.0 0.38 0.79 0.00 1 932.7
20260507001708 11 180 3.2 8.0 0.36 0.74 0.00 1 932.6
20260507001509 11 135 3.2 8.0 0.33 0.71 0.00 1 932.6
20260507001309 12 180 3.2 8.0 0.33 0.71 0.00 1
20260507001109 11 180 3.2 8.0 0.33 0.71 0.00 1
20260507000908 12 225 3.2 8.0 0.33 0.71 0.00 1
20260507000708 11 180 3.2 8.0 0.33 0.71 0.00 1
20260507000509 11 135 3.2 8.0 0.33 0.71 0.00 1 932.3
20260507000308 12 135 4.8 8.0 0.28 0.69 0.00 1 932.3
20260507000108 12 180 3.2 8.0 0.28 0.69 0.00 1 932.3
20260506235908 12 180 3.2 8.0 0.28 0.69 0.00 1 932.3
20260506235708 12 225 3.2 8.0 0.28 0.66 0.00 1 932.2
20260506235509 12 180 3.2 8.0 0.25 0.58 0.00 1 932.2
20260506235308 12 0 3.2 8.0 0.18 0.46 0.00 1 932.2
20260506235108 12 180 3.2 8.0 0.23 0.41 0.00 1 932.2
20260506234909 12 180 3.2 8.0 0.28 0.41 0.00 1 932.1
20260506234708 12 225 3.2 8.0 0.33 0.41 0.00 1 932.1
20260506234510 12 180 3.2 8.0 0.33 0.41 0.00 1 932.2
20260506234308 12 180 1.6 9.7 0.33 0.41 0.00 1 932.1
20260506233908 12 135 3.2 9.7 0.28 0.38 0.00 1 932.0
20260506233708 12 135 3.2 9.7 0.33 0.38 0.00 1 931.9
20260506233509 12 225 4.8 9.7 0.33 0.38 0.00 1 931.8
20260506233308 13 135 3.2 6.4 0.33 0.38 0.00 1 931.7
20260506233108 13 135 1.6 4.8 0.33 0.38 0.00 1 931.7
20260506232908 13 225 1.6 4.8 0.33 0.38 0.00 1 931.6
20260506232709 13 180 0.0 4.8 0.33 0.38 0.00 1 931.6
20260506232509 13 135 0.0 4.8 0.33 0.38 0.00 1 931.6
20260506232308 13 225 1.6 4.8 0.33 0.38 0.00 1 931.6
20260506232108 13 135 1.6 4.8 0.33 0.38 0.00 1 931.6
20260506231908 14 135 0.0 3.2 0.33 0.38 0.00 1 931.5
20260506231708 14 180 0.0 3.2 0.33 0.38 0.00 1 931.6
20260506231509 14 225 0.0 3.2 0.33 0.38 0.00 1 931.5
20260506231308 14 225 0.0 3.2 0.33 0.38 0.00 1 931.4
20260506231108 15 135 0.0 3.2 0.33 0.38 0.00 1 931.4
20260506230908 15 225 0.0 1.6 0.33 0.38 0.00 1 931.3
20260506230708 15 135 0.0 0.0 0.33 0.38 0.00 1 931.2
20260506230509 15 45 0.0 0.0 0.33 0.38 0.00 1 931.2
20260506230108 15 45 0.0 0.0 0.33 0.38 0.00 1 931.2
20260506225908 15 135 0.0 0.0 0.33 0.38 0.00 1 931.1
20260506225708 15 135 0.0 0.0 0.28 0.36 0.00 1 931.0
20260506225509 16 45 0.0 0.0 0.25 0.33 0.00 1 931.0
20260506225308 16 180 0.0 3.2 0.18 0.25 0.00 1 931.0
20260506225108 15 315 0.0 3.2 0.13 0.18 0.00 1 930.9
20260506224908 15 0 0.0 3.2 0.05 0.13 0.00 1 930.9
20260506224708 15 45 0.0 3.2 0.03 0.08 0.00 1 930.9
20260506224509 15 225 0.0 3.2 0.03 0.08 0.00 1 930.9
20260506224308 15 225 0.0 3.2 0.03 0.08 0.00 1 930.9
20260506224108 15 225 0.0 3.2 0.03 0.08 0.00 1 930.8
20260506223909 16 180 0.0 1.6 0.03 0.08 0.00 1 930.8
20260506223708 16 225 0.0 1.6 0.00 0.05 0.00 1 930.7
20260506223510 16 225 0.0 1.6 0.00 0.05 0.00 1 930.7
20260506223308 16 0 0.0 1.6 0.00 0.05 0.00 1 930.7
20260506223108 16 225 0.0 1.6 0.03 0.05 0.00 1 930.7
20260506222908 16 135 0.0 1.6 0.03 0.05 0.00 1 930.7
20260506222708 16 225 0.0 0.0 0.03 0.05 0.00 1 930.7
20260506222509 16 225 0.0 0.0 0.05 0.05 0.00 1 930.8
20260506222308 16 45 0.0 1.6 0.05 0.05 0.00 1 930.8
20260506222108 15 90 0.0 1.6 0.05 0.05 0.00 1 930.8
20260506221908 15 135 0.0 1.6 0.05 0.05 0.00 1 930.8
20260506221708 15 135 0.0 1.6 0.05 0.05 0.00 1 930.7
20260506221509 15 135 0.0 1.6 0.05 0.05 0.00 1 930.7
20260506221308 15 135 0.0 0.0 0.05 0.05 0.00 1 930.7
20260506221108 15 135 0.0 0.0 0.05 0.05 0.00 1 930.6
20260506220908 16 90 0.0 0.0 0.05 0.05 0.00 1 930.6
20260506220708 16 135 0.0 0.0 0.05 0.05 0.00 1 930.6
20260506220509 16 135 0.0 1.6 0.05 0.05 0.00 1 930.5
20260506220308 16 45 0.0 1.6 0.05 0.05 0.00 1 930.5
20260506220108 16 45 0.0 1.6 0.05 0.05 0.00 1 930.5
20260506215908 16 45 0.0 1.6 0.05 0.05 0.00 1 930.5
20260506215708 16 45 0.0 1.6 0.05 0.05 0.00 1 930.5
20260506215509 16 180 0.0 1.6 0.05 0.05 0.00 1 930.5
20260506215308 16 180 0.0 1.6 0.05 0.05 0.00 1 930.5
20260506215108 16 225 0.0 3.2 0.05 0.05 0.00 1 930.5
20260506214908 16 45 0.0 3.2 0.05 0.05 0.00 1 930.4
20260506214708 16 45 0.0 3.2 0.05 0.05 0.00 1 930.4
20260506214509 16 225 0.0 3.2 0.05 0.05 0.00 1 930.6
20260506214308 16 0 0.0 3.2 0.05 0.05 0.00 1 930.5
20260506214108 16 225 0.0 3.2 0.05 0.05 0.00 1 930.4
20260506213908 16 180 0.0 3.2 0.05 0.05 0.00 1 930.4
20260506213708 16 225 0.0 4.8 0.05 0.05 0.00 1 930.5
20260506213509 16 0 0.0 4.8 0.05 0.05 0.00 1 930.5
20260506213308 16 225 0.0 4.8 0.05 0.05 0.00 1 930.5
20260506213108 15 315 0.0 4.8 0.03 0.03 0.00 1 930.4
20260506212908 15 315 1.6 4.8 0.03 0.03 0.00 1 930.5
20260506212708 16 0 1.6 6.4 0.00 0.00 0.00 1 930.3
20260506212510 16 225 0.0 6.4 0.00 0.00 0.00 1 930.3
20260506212308 16 0 1.6 6.4 0.00 0.00 0.00 1 930.2
20260506212108 16 0 3.2 6.4 0.00 0.00 0.00 1 930.1
20260506211908 16 225 1.6 6.4 0.00 0.00 0.00 1 930.1
20260506211708 16 0 1.6 6.4 0.00 0.00 0.00 1 930.0
20260506211509 16 225 1.6 6.4 0.00 0.00 0.00 1 929.9
20260506211308 16 0 1.6 9.7 0.00 0.00 0.00 1 929.9
20260506211108 16 0 1.6 9.7 0.00 0.00 0.00 1 929.9
20260506210908 16 0 3.2 11.3 0.00 0.00 0.00 1 929.9
20260506210708 16 225 3.2 11.3 0.00 0.00 0.00 1 929.9
20260506210509 16 225 3.2 11.3 0.00 0.00 0.00 1 929.9
20260506210308 16 0 3.2 11.3 0.00 0.00 0.00 1 929.9
20260506210108 16 225 1.6 11.3 0.00 0.00 0.00 1 929.9
20260506205908 16 225 1.6 8.0 0.00 0.00 0.00 1 929.9
20260506205708 17 225 1.6 8.0 0.00 0.00 0.00 1 929.9
20260506205509 17 0 1.6 8.0 0.00 0.00 0.00 1 929.9
20260506205308 17 90 0.0 4.8 0.00 0.00 0.00 1 929.8
20260506205108 17 0 0.0 8.0 0.00 0.00 0.00 1 929.8
20260506204908 17 225 1.6 8.0 0.00 0.00 0.00 1 929.8
20260506204708 17 135 1.6 8.0 0.00 0.00 0.00 1 929.9
20260506204509 17 0 0.0 8.0 0.00 0.00 0.00 1 929.8
20260506204308 17 0 1.6 8.0 0.00 0.00 0.00 1 929.8
20260506204108 17 135 0.0 4.8 0.00 0.00 0.00 1 929.8
20260506203909 17 45 0.0 9.7 0.00 0.00 0.00 1 929.7
20260506203708 17 225 0.0 9.7 0.00 0.00 0.00 1 929.7
20260506203510 17 315 0.0 9.7 0.00 0.00 0.00 1 929.8
20260506203308 17 0 0.0 9.7 0.00 0.00 0.00 1 929.9
20260506203108 17 225 3.2 9.7 0.00 0.00 0.00 1 929.9
20260506202908 17 0 1.6 12.9 0.00 0.00 0.00 1 929.8
20260506202708 17 225 1.6 12.9 0.00 0.00 0.00 1 929.8
20260506202509 17 0 1.6 12.9 0.00 0.00 0.00 1 929.8
20260506202308 17 135 3.2 12.9 0.00 0.00 0.00 1 929.8
20260506202108 17 0 3.2 12.9 0.00 0.00 0.00 1 929.8
20260506201908 17 315 0.0 8.0 0.00 0.00 0.00 1 929.8
20260506201708 17 45 0.0 9.7 0.00 0.00 0.00 1 929.7
20260506201509 17 225 1.6 9.7 0.00 0.00 0.00 1 929.7
20260506201308 16 0 3.2 9.7 0.00 0.00 0.00 1 929.7
20260506201108 17 0 3.2 9.7 0.00 0.00 0.00 1 929.7
20260506200908 17 225 4.8 9.7 0.00 0.00 0.00 1 929.7
20260506200708 17 225 4.8 9.7 0.00 0.00 0.00 1 929.7
20260506200509 17 0 4.8 9.7 0.00 0.00 0.00 1 929.8
20260506200308 17 225 4.8 9.7 0.00 0.00 0.00 1 929.8
20260506200108 17 0 1.6 9.7 0.00 0.00 0.00 1 929.8
20260506195908 17 225 3.2 9.7 0.00 0.00 0.00 1 929.8
20260506195708 17 0 4.8 9.7 0.00 0.00 0.00 1 929.8
20260506195509 17 225 3.2 9.7 0.00 0.00 0.00 1 929.8
20260506195308 17 0 3.2 9.7 0.00 0.00 0.00 1 929.9
20260506195109 17 225 4.8 9.7 0.00 0.00 0.00 1 929.9
20260506194908 17 180 4.8 9.7 0.00 0.00 0.00 1 929.9
20260506194708 17 225 3.2 9.7 0.00 0.00 0.00 1 930.0
20260506194510 17 45 1.6 9.7 0.00 0.00 0.00 1 930.0
20260506194308 17 180 3.2 11.3 0.00 0.00 0.00 1 930.0
20260506194108 17 0 3.2 11.3 0.00 0.00 0.00 1 930.1
20260506193908 17 0 4.8 11.3 0.00 0.00 0.00 1 930.2
20260506193708 17 225 3.2 11.3 0.00 0.00 0.00 1 930.2
20260506193509 17 0 4.8 11.3 0.00 0.00 0.00 99 930.1
20260506193308 17 0 3.2 9.7 0.00 0.00 0.00 99 930.2
20260506193108 17 90 1.6 11.3 0.00 0.00 0.00 99 930.1
20260506192908 17 0 3.2 11.3 0.00 0.00 0.00 99 930.1
20260506192709 17 315 3.2 11.3 0.00 0.00 0.00 99 930.1
20260506192509 17 225 3.2 11.3 0.00 0.00 0.00 99 930.2
20260506192308 17 225 4.8 11.3 0.00 0.00 0.00 99 930.1
20260506192108 17 0 3.2 9.7 0.00 0.00 0.00 99 930.1
20260506191908 17 225 3.2 9.7 0.00 0.00 0.00 99 930.2
20260506191708 17 225 3.2 9.7 0.00 0.00 0.00 99 930.1
20260506191509 17 225 1.6 9.7 0.00 0.00 0.00 99 930.2
20260506191308 17 0 3.2 9.7 0.00 0.00 0.00 99 930.3
20260506191108 17 225 4.8 9.7 0.00 0.00 0.00 99 930.3
20260506190908 17 225 3.2 11.3 0.00 0.00 0.00 99 930.3
20260506190708 17 225 4.8 11.3 0.00 0.00 0.00 99 930.4
20260506190509 17 0 1.6 11.3 0.00 0.00 0.00 99 930.4
20260506190309 17 225 4.8 11.3 0.00 0.00 0.00 99 930.3
20260506190108 17 225 4.8 11.3 0.00 0.00 0.00 99 930.3
20260506185908 18 225 3.2 6.4 0.00 0.00 0.00 99 930.3
20260506185708 18 225 3.2 6.4 0.00 0.00 0.00 99 930.2
20260506185509 18 45 3.2 8.0 0.00 0.00 0.00 99 930.1
20260506185308 18 225 3.2 8.0 0.00 0.00 0.00 99 930.1
20260506185108 18 90 1.6 9.7 0.00 0.00 0.00 99 930.0
20260506184908 18 180 1.6 9.7 0.00 0.00 0.00 99 930.0
20260506184708 18 225 0.0 9.7 0.00 0.00 0.00 99 930.0
20260506184509 18 0 1.6 9.7 0.00 0.00 0.00 99 930.1
20260506184308 18 225 4.8 11.3 0.00 0.00 0.00 99 930.1
20260506184108 18 0 4.8 11.3 0.00 0.00 0.00 99 930.1
20260506183909 18 225 3.2 11.3 0.00 0.00 0.00 99 930.2
20260506183708 18 315 3.2 11.3 0.00 0.00 0.00 99 930.2
20260506183510 18 225 4.8 12.9 0.00 0.00 0.00 99 930.1
20260506183308 18 0 4.8 12.9 0.00 0.00 0.00 99 930.2
20260506183108 18 0 3.2 12.9 0.00 0.00 0.00 99 930.2
20260506182908 18 315 4.8 12.9 0.00 0.00 0.00 99 930.2
20260506182708 18 225 6.4 14.5 0.00 0.00 0.00 99 930.1
20260506182509 18 0 4.8 14.5 0.00 0.00 0.00 99 930.3
20260506182308 18 0 4.8 14.5 0.00 0.00 0.00 99 930.2
20260506182108 18 0 3.2 14.5 0.00 0.00 0.00 99 930.1
20260506181908 18 0 4.8 14.5 0.00 0.00 0.00 99 930.1
20260506181708 18 225 4.8 11.3 0.00 0.00 0.00 99 930.2
20260506181509 18 0 3.2 11.3 0.00 0.00 0.00 99 930.2